Regional Weather Roundup
Issued by NWS Kansas City/Pleasant Hill, MO

Home | Current Version | Previous Version | Text Only | Print | Product List | Glossary On
Versions: 1 2 3 4 5 6 7 8 9 10 11 12 13 14 15 16 17 18 19 20 21 22 23 24 25 26 27 28 29 30 31 32 33 34 35 36 37 38 39 40 41 42 43 44 45 46 47 48 49 50
000
ASUS43 KEAX 220510
RWREAX

WEATHER ROUNDUP FOR EASTERN KANSAS AND NORTHWEST MISSOURI
NATIONAL WEATHER SERVICE KANSAS CITY/PLEASANT HILL MO
1200 AM CDT FRI MAY 22 2015

KSZ040-057-103>105-MOZ028-029-037-043-220600-
...KANSAS CITY METROPOLITAN AREA...

CITY           SKY/WX    TMP DP  RH WIND       PRES   REMARKS
K.C. INTL      MOCLDY    53  45  74 SW8       30.22R
K.C. DOWNTOWN  MOCLDY    55  48  77 SW5       30.21R
LEES SUMMIT    MOCLDY    53  44  71 SW5       30.23R
OLATHE - IXD   PTCLDY    53  45  74 SW5       30.24R
OLATHE - OJC   MOCLDY    53  47  79 SW3       30.22R
LAWRENCE       PTCLDY    48  45  89 NW3       30.23R

$$

MOZ001>008-011>017-020>025-030>033-038>040-044>046-053-054-220600-
...NORTHERN AND CENTRAL MISSOURI...

CITY           SKY/WX    TMP DP  RH WIND       PRES   REMARKS
ST. JOSEPH     PTCLDY    54  48  80 S3        30.21R
MOSBY          PTCLDY    52  50  93 CALM      30.21R
WARRENSBURG    PTCLDY    52  45  76 SW3       30.21S
WHITEMAN AFB   PTCLDY    52  46  79 SW6       30.20S
CLINTON        FAIR      54  48  82 SW3       30.23R
SEDALIA        CLEAR     55  46  71 SW7       30.21F
WARSAW         NOT AVBL
CHILLICOTHE      N/A     54  48  80 CALM      30.19R
KIRKSVILLE     CLEAR     56  46  69 SW7       30.16S

$$

MOZ041-047>049-056>058-063>065-088>090-097-220600-
...EASTERN AND SOUTHERN MISSOURI...

CITY           SKY/WX    TMP DP  RH WIND       PRES   REMARKS
ST. LOUIS INTL CLEAR     55  42  61 SW6       30.18S
SPIRIT OF STL  CLEAR     49  46  90 CALM      30.18R
COLUMBIA       CLEAR     54  44  69 SW7       30.19S
JEFFERSON CITY CLEAR     52  47  83 CALM      30.20S
ROLLA          CLEAR     45  42  89 SW8       30.20R
OSAGE BEACH    CLEAR     46  43  87 CALM      30.22S
SPRINGFIELD    CLEAR     49  44  83 CALM      30.23R
BRANSON        CLEAR     48  45  87 CALM      30.24S
JOPLIN         CLEAR     47  46  97 E3        30.24F
WEST PLAINS    CLEAR     44  41  89 CALM      30.24S

$$

IAZ060-094-KSZ022-034>040-054-083-096-NEZ052-066-093-220600-
...KANSAS...SOUTHEAST NEBRASKA AND IOWA...

CITY           SKY/WX    TMP DP  RH WIND       PRES   REMARKS
TOPEKA         PTCLDY    55  48  77 CALM      30.24R
MANHATTAN      PTCLDY    50  46  86 CALM      30.24R
EMPORIA        CLEAR     51  45  79 SW5       30.24S
CHANUTE        CLEAR     49  47  93 CALM      30.24S
WICHITA        MOCLDY    54  46  74 E7        30.22F
OMAHA          PTCLDY    62  40  44 SW6       30.18R
LINCOLN        PTCLDY    56  42  59 W3        30.22R
FALLS CITY     PTCLDY    55  44  66 SW7       30.20R
LAMONI         CLEAR     59  44  57 W13       30.16R
DES MOINES     PTCLDY    59  42  53 W6        30.13R

$$



USA.gov is the U.S. government's official web portal to all federal, state and local government web resources and services.